Weather History for PAKP - February, 2013

Change the Weather History Date:

Saturday, February 16, 2013

  Actual Average Record
Temperature  
Mean Temperature -20 °F -  
Max Temperature -16 °F -2 °F 33 °F (2006)
Min Temperature -23 °F -12 °F -32 °F (1998)
Degree Days  
Heating Degree Days 84    
Moisture  
Dew Point -27 °F    
Average Humidity 61    
Maximum Humidity 76    
Minimum Humidity 58    
Precipitation  
Precipitation 0.00 in - - ()
Sea Level Pressure  
Sea Level Pressure 29.84 in    
Wind  
Wind Speed 9 mph (NNE)    
Max Wind Speed 14 mph    
Max Gust Speed 18 mph    
Visibility 8 miles    
Events      
Averages and records for this station are not official NWS values.
T = Trace of Precipitation, MM = Missing Value Source: NWS Daily Summary

Daily Weather History Graph

Daily Weather History Graph

Search for Another Location

Airport or City:

Trip Planner

Search our weather history database for the weather conditions in past years. The results will help you decide how hot, cold, wet, or windy it might be!

Date:

Astronomy

Feb. 16, 2013 Rise Set
Actual Time 9:19 AM AKST 5:24 PM AKST
Civil Twilight 8:18 AM AKST 6:25 PM AKST
Nautical Twilight 7:12 AM AKST 7:31 PM AKST
Astronomical Twilight 6:08 AM AKST 8:36 PM AKST
Moon 8:55 AM AKST (2/16) 3:10 AM AKST (2/16)
Length of Visible Light 10h 07m
Length of Day
8h 04m
Waxing Crescent, 41% of the Moon is Illuminated
Feb 16
Waxing Crescent
Feb 17
First Quarter
Feb 25
Full
Mar 4
Last Quarter
Mar 11
New

Hourly Weather History & Observations

Time (AKST) Temp. Windchill Dew Point Humidity Pressure Visibility Wind Dir Wind Speed Gust Speed Precip Events Conditions
12:16 AM -16.6 °F -32.9 °F -27.4 °F 58% 29.79 in 3.0 mi NNE 6.9 mph - N/A   Overcast
12:36 AM -16.6 °F -32.9 °F -27.4 °F 58% 29.79 in 5.0 mi NNE 6.9 mph - N/A   Overcast
12:56 AM -16.6 °F -32.9 °F -27.4 °F 58% 29.80 in 10.0 mi NNE 6.9 mph - N/A   Overcast
1:16 AM -16.6 °F -31.3 °F -25.6 °F 64% 29.80 in 10.0 mi NNE 5.8 mph - N/A   Overcast
1:36 AM -16.6 °F -34.4 °F -25.6 °F 64% 29.80 in 10.0 mi NNE 8.1 mph - N/A   Overcast
1:56 AM -16.6 °F -34.4 °F -25.6 °F 64% 29.80 in 10.0 mi NNE 8.1 mph - N/A   Overcast
2:16 AM -16.6 °F -34.4 °F -25.6 °F 64% 29.81 in 10.0 mi NNE 8.1 mph - N/A   Overcast
2:36 AM -16.6 °F -32.9 °F -25.6 °F 64% 29.81 in 10.0 mi NNE 6.9 mph - N/A   Overcast
2:56 AM -16.6 °F -34.4 °F -25.6 °F 64% 29.81 in 10.0 mi NE 8.1 mph - N/A   Overcast
3:16 AM -16.6 °F -32.9 °F -25.6 °F 64% 29.81 in 10.0 mi NE 6.9 mph - N/A   Overcast
3:36 AM -16.6 °F -34.4 °F -25.6 °F 64% 29.81 in 10.0 mi NNE 8.1 mph - N/A   Overcast
3:56 AM -16.6 °F -36.8 °F -25.6 °F 64% 29.81 in 10.0 mi NNE 10.4 mph - N/A   Overcast
4:16 AM -16.6 °F -36.8 °F -25.6 °F 64% 29.81 in 10.0 mi NNE 10.4 mph - N/A   Overcast
4:36 AM -16.6 °F -36.8 °F -25.6 °F 64% 29.81 in 10.0 mi NNE 10.4 mph - N/A   Overcast
4:56 AM -16.6 °F -35.7 °F -25.6 °F 64% 29.81 in 9.0 mi NNE 9.2 mph - N/A   Overcast
5:16 AM -16.6 °F -35.7 °F -25.6 °F 64% 29.81 in 8.0 mi NNE 9.2 mph - N/A   Overcast
5:36 AM -16.6 °F -34.4 °F -25.6 °F 64% 29.82 in 9.0 mi NNE 8.1 mph - N/A   Overcast
5:56 AM -16.6 °F -35.7 °F -25.6 °F 64% 29.82 in 8.0 mi NNE 9.2 mph - N/A   Overcast
6:16 AM -16.6 °F -35.7 °F -25.6 °F 64% 29.83 in 8.0 mi NNE 9.2 mph - N/A   Overcast
6:36 AM -16.6 °F -35.7 °F -25.6 °F 64% 29.83 in 9.0 mi NNE 9.2 mph - N/A   Overcast
6:56 AM -16.6 °F -34.4 °F -25.6 °F 64% 29.82 in 10.0 mi NE 8.1 mph - N/A   Overcast
7:16 AM -16.6 °F -36.8 °F -25.6 °F 64% 29.82 in 9.0 mi NNE 10.4 mph - N/A   Overcast
7:36 AM -16.6 °F -37.9 °F -25.6 °F 64% 29.83 in 10.0 mi NNE 11.5 mph - N/A   Overcast
7:56 AM -16.6 °F -37.9 °F -25.6 °F 64% 29.82 in 10.0 mi NNE 11.5 mph - N/A   Overcast
8:16 AM -16.6 °F -39.8 °F -27.4 °F 58% 29.82 in 9.0 mi NNE 13.8 mph - N/A   Overcast
8:36 AM -16.6 °F -38.9 °F -25.6 °F 64% 29.83 in 10.0 mi NNE 12.7 mph - N/A   Overcast
8:56 AM -16.6 °F -38.9 °F -27.4 °F 58% 29.83 in 8.0 mi NNE 12.7 mph - N/A   Overcast
9:16 AM -16.6 °F -36.8 °F -27.4 °F 58% 29.83 in 9.0 mi NNE 10.4 mph - N/A   Overcast
9:36 AM -16.6 °F -36.8 °F -27.4 °F 58% 29.83 in 9.0 mi NNE 10.4 mph - N/A   Overcast
9:56 AM -16.6 °F -37.9 °F -27.4 °F 58% 29.83 in 7.0 mi NNE 11.5 mph - N/A   Overcast
10:16 AM -16.6 °F -37.9 °F -27.4 °F 58% 29.84 in 6.0 mi NNE 11.5 mph - N/A   Overcast
10:36 AM -16.6 °F -37.9 °F -27.4 °F 58% 29.84 in 5.0 mi NNE 11.5 mph - N/A   Overcast
10:56 AM -16.6 °F -36.8 °F -27.4 °F 58% 29.84 in 4.0 mi NNE 10.4 mph - N/A   Overcast
11:16 AM -16.6 °F -37.9 °F -27.4 °F 58% 29.84 in 4.0 mi NNE 11.5 mph - N/A   Overcast
11:36 AM -16.6 °F -38.9 °F -27.4 °F 58% 29.84 in 4.0 mi NNE 12.7 mph - N/A   Overcast
11:56 AM -16.6 °F -38.9 °F -27.4 °F 58% 29.84 in 5.0 mi NNE 12.7 mph - N/A   Overcast
12:16 PM -16.6 °F -38.9 °F -27.4 °F 58% 29.84 in 6.0 mi NNE 12.7 mph - N/A   Overcast
12:36 PM -16.6 °F -36.8 °F -27.4 °F 58% 29.84 in 8.0 mi NNE 10.4 mph - N/A   Overcast
12:56 PM -18.4 °F -39.1 °F -27.4 °F 63% 29.85 in 9.0 mi NNE 10.4 mph - N/A   Overcast
1:16 PM -18.4 °F -39.1 °F -29.2 °F 58% 29.85 in 10.0 mi NNE 10.4 mph - N/A   Overcast
1:36 PM -18.4 °F -40.2 °F -29.2 °F 58% 29.85 in 9.0 mi NNE 11.5 mph - N/A   Overcast
1:56 PM -18.4 °F -41.2 °F -29.2 °F 58% 29.85 in 8.0 mi NNE 12.7 mph - N/A   Overcast
2:16 PM -18.4 °F -41.2 °F -27.4 °F 63% 29.86 in 7.0 mi NNE 12.7 mph 16.1 mph N/A   Overcast
2:36 PM -18.4 °F -40.2 °F -29.2 °F 58% 29.86 in 7.0 mi NNE 11.5 mph - N/A   Overcast
2:56 PM -18.4 °F -41.2 °F -27.4 °F 63% 29.86 in 5.0 mi NNE 12.7 mph - N/A   Overcast
3:16 PM -18.4 °F -40.2 °F -27.4 °F 63% 29.86 in 2.5 mi NNE 11.5 mph - N/A   Overcast
3:36 PM -18.4 °F -41.2 °F -27.4 °F 63% 29.86 in 2.0 mi NNE 12.7 mph - N/A   Overcast
3:56 PM -18.4 °F -41.2 °F -27.4 °F 63% 29.85 in 2.0 mi NNE 12.7 mph - N/A   Overcast
4:16 PM -18.4 °F -42.1 °F -29.2 °F 58% 29.85 in 2.5 mi NNE 13.8 mph - N/A   Overcast
4:36 PM -18.4 °F -41.2 °F -29.2 °F 58% 29.85 in 2.5 mi NNE 12.7 mph 18.4 mph N/A   Overcast
4:56 PM -18.4 °F -42.1 °F -29.2 °F 58% 29.85 in 3.0 mi NNE 13.8 mph - N/A   Overcast
5:16 PM -18.4 °F -39.1 °F -29.2 °F 58% 29.86 in 5.0 mi NNE 10.4 mph - N/A   Overcast
5:36 PM -18.4 °F -40.2 °F -29.2 °F 58% 29.86 in 8.0 mi NNE 11.5 mph - N/A   Overcast
5:56 PM -20.2 °F -41.3 °F -25.6 °F 76% 29.87 in 7.0 mi NNE 10.4 mph - N/A   Overcast
6:16 PM -20.2 °F -40.1 °F - N/A% 29.87 in 5.0 mi NNE 9.2 mph - N/A   Overcast
6:36 PM -20.2 °F -42.4 °F - N/A% 29.87 in 10.0 mi NNE 11.5 mph - N/A   Mostly Cloudy
6:56 PM -20.2 °F -41.3 °F - N/A% 29.87 in 8.0 mi NNE 10.4 mph - N/A   Mostly Cloudy
7:16 PM -20.2 °F -38.8 °F - N/A% 29.87 in 7.0 mi NNE 8.1 mph - N/A   Overcast
7:36 PM -22.0 °F -41.0 °F - N/A% 29.88 in 10.0 mi NNE 8.1 mph - N/A   Overcast
7:56 PM -22.0 °F -41.0 °F - N/A% 29.88 in 10.0 mi NNE 8.1 mph - N/A   Overcast
8:16 PM -20.2 °F -38.8 °F - N/A% 29.88 in 10.0 mi NNE 8.1 mph - N/A   Overcast
8:36 PM -20.2 °F -40.1 °F - N/A% 29.88 in 10.0 mi NNE 9.2 mph - N/A   Mostly Cloudy
8:56 PM -20.2 °F -41.3 °F - N/A% 29.88 in 10.0 mi NNE 10.4 mph - N/A   Mostly Cloudy
9:16 PM -20.2 °F -41.3 °F - N/A% 29.88 in 10.0 mi NE 10.4 mph - N/A   Mostly Cloudy
9:36 PM -22.0 °F -43.6 °F - N/A% 29.89 in 10.0 mi NE 10.4 mph - N/A   Overcast
9:56 PM -22.0 °F -45.7 °F - N/A% 29.89 in 10.0 mi NE 12.7 mph - N/A   Mostly Cloudy
10:16 PM -22.0 °F -43.6 °F - N/A% 29.89 in 10.0 mi NE 10.4 mph - N/A   Mostly Cloudy
10:36 PM -23.8 °F -45.8 °F - N/A% 29.90 in 10.0 mi NE 10.4 mph - N/A   Mostly Cloudy
10:56 PM -23.8 °F -45.8 °F - N/A% 29.90 in 10.0 mi NE 10.4 mph - N/A   Clear
11:16 PM -23.8 °F -44.5 °F - N/A% 29.90 in 9.0 mi NE 9.2 mph - N/A   Clear
11:36 PM -23.8 °F -44.5 °F - N/A% 29.90 in 10.0 mi NE 9.2 mph - N/A   Clear
11:56 PM -23.8 °F -45.8 °F - N/A% 29.90 in 7.0 mi NE 10.4 mph - N/A   Mostly Cloudy